EHI
0 0 0 0 0 0 0 0 0 0 0 0 0 0 0 0 0 0 0 0 0 0 0 0 0 0 0 0 0 0 0 0 0 0 0 0 0 0
0 0 0 0 0 0 0 0 0 0 0 0 0 0 0 0 0 0 0 0 0 0 0 0 0 0 0 0 0 0 0 0 0 0 0 0 0 0
0 0 0 0 0 0 0 0 0 0 0 0 0 0 0 0 0 0 0 0 0 0 0 0 0 0 0 0 0 0 0 0 0 0 0 0 0 0
0 0 0 0 0 0 0 0 0 0 0 0 0 0 0 0 0 0 0 0 0 0 0 0 0 0 0 0 0 0 0 0 0 0 0 0 0 0
0 0 0 0 0 0 0 0 0 0 0 0 0 0 0 0 0 0 0 0 0 0 0 0 0 0 0 0 0 0 0 0 0 0 0 0 0 0
0 0 0 0 0 0 0 0 0 0 0 0 0 0 0 0 0 0 0 0 0 0 0 0 0 0 0 0 0 0 0 0 0 0 0 0 0 0
0 0 0 0 0 0 0 0 0 0 0 0 0 0 0 0 0 0 0 0 0 0 0 0 0 0 0 0 0 0 0 0 0 0 0 0 0 0
0 0 0 0 0 0 0 0 0 0 0 0 0 0 0 0 0 0 0 0 0 0 0 0 0 0 0 0 0 0 0 0 0 0 0 0 0 0
0 0 0 0 0 0 0 0 0 0 0 0 0 0 0 0 0 0 0 0 0 0 0 0 0 0 0 0 0 0 0 0 0 0 0 0 0 0
0 0 0 0 0 0 0 0 0 0 0 0 0 0 0 0 0 0 0 0 0 0 0 0 0 0 0 0 0 0 0 0 0 0 0 0 0 0
0 0 0 0 0 0 0 0 0 0 0 0 0 0 0 0 0 0 0 0 0 0 0 0 0 0 0 0 0 0 0 0 0 0 0 0 0 0
0 0 0 0 0 0 0 0 0 0 0 0 0 0 0 0 0 0 0 0 0 0 0 0 0 0 0 0 0 0 0 0 0 0 0 0 0 0
0 0 0 0 0 0 0 0 0 0 0 0 0 0 0 0 0 0 0 0 0 0 0 0 0 0 0 0 0 0 0 0 0 0 0 0 0 0
0 0 0 0 0 0 0 0 0 0 0 0 0 0 0 0 0 0 0 0 0 0 0 0 0 0 0 0 0 0 0 0 0 0 0 0 0 0
0 0 0 0 0 0 0 0 0 0 0 0 0 0 0 0 0 0 0 0 0 0 0 0 0 0 0 0 0 0 0 0 0 0 0 0 0 0
0 0 0 0 0 0 0 0 0 0 0 0 0 0 0 0 0 0 0 0 0 0 0 0 0 0 0 0 0 0 0 0 0 0 0 0 0 0
0 0 0 0 0 0 0 0 0 0 0 0 0 0 0 0 0 0 0 0 0 0 0 0 0 0 0 0 0 0 0 0 0 0 0 0 0 0
0 0 0 0 0 0 0 0 0 0 0 0 0 0 0 0 0 0 0 0 0 0 0 0 0 0 0 0 0 0 0 0 0 0 0 0 0 0
0 0 0 0 0 0 0 0 0 0 0 0 0 0 0 0 0 0 0 0 0 0 0 0 0 0 0 0 0 0 0 0 0 0 0 0 0 0
0 0 0 0 0 0 0 0 0 0 0 0 0 0 0 0 0 0 0 0 0 0 0 0 0 0 0 0 0 0 0 0 0 0 0 0 0 0
0 0 0 0 0 0 0 0 0 0 0 0 0 0 0 0 0 0 0 0 0 0 0 0 0 0 0 0 0 0 0 0 0 0 0 0 0 0
0 0 0 0 0 0 0 0 0 0 0 0 0 0 0 0 0 0 0 0 0 0 0 0 0 0 0 0 0 0 0 0 0 0 0 0 0 0
0 0 0 0 0 0 0 0 0 0 0 0 0 0 0 0 0 0 0 0 0 0 0 0 0 0 0 0 0 0 0 0 0 0 0 0 0 0
Wind_Speed
5 5 5 3 3 3 4 6 6 5 2 1 1 1 2 2 3 2 2 3 4 3 2 2 1 1 2 3 4 5 5 6 7 8 8 8 9 9
5 7 6 4 4 4 4 3 3 6 4 2 2 2 2 2 4 2 3 5 5 5 5 4 2 1 0 1 2 3 4 6 7 8 8 9 9 9
7 7 7 6 5 4 4 4 4 4 6 2 1 1 1 1 0 1 2 2 2 6 7 6 4 3 2 1 0 2 3 5 6 7 8 9 9 10
7 8 7 7 7 5 5 5 4 4 6 4 1 1 0 1 0 1 1 1 2 5 7 7 6 5 4 3 2 1 2 3 5 6 7 8 9 9
6 7 6 8 7 5 6 5 4 5 4 4 2 1 1 1 2 2 1 2 1 3 6 6 7 7 6 5 3 2 2 3 4 5 6 7 8 9
6 6 6 6 6 6 6 5 5 5 5 4 3 2 2 2 3 2 2 2 2 1 1 2 4 5 6 6 5 5 4 4 4 4 5 6 7 9
6 6 6 7 8 6 5 4 5 4 4 4 3 2 2 2 2 1 1 2 2 1 1 1 1 1 3 4 6 6 6 5 5 5 6 6 7 8
5 5 6 8 9 9 8 6 5 5 4 3 2 2 0 0 0 1 1 2 2 2 1 2 0 2 3 3 6 8 7 7 6 6 7 7 8 8
5 5 5 6 6 5 7 8 6 5 5 4 3 2 2 2 1 1 0 1 2 2 1 2 1 2 3 4 8 8 9 8 8 7 8 8 8 8
5 5 5 5 5 5 5 6 5 3 2 2 3 3 3 3 3 2 1 1 2 2 1 0 2 2 3 3 6 8 9 9 9 9 8 9 8 8
5 5 5 5 6 7 6 5 5 4 3 2 2 3 4 5 4 1 1 2 2 3 1 1 1 2 3 3 4 7 8 9 10 10 9 9 8 7
4 4 5 5 6 7 5 4 4 3 4 4 4 3 1 1 3 3 3 2 1 2 2 1 1 1 3 3 3 3 4 7 9 10 10 10 8 3
2 2 2 4 5 5 4 2 1 2 2 2 2 3 2 2 1 2 3 3 3 3 3 2 1 1 1 3 4 3 2 3 3 4 6 9 8 4
1 1 2 4 5 4 2 2 4 3 2 3 3 3 2 2 2 3 2 4 4 5 4 3 3 3 2 2 4 4 3 3 2 3 3 5 6 6
1 2 3 4 4 3 4 5 4 3 3 3 2 2 2 3 2 3 3 2 2 3 3 3 4 3 3 3 3 3 3 3 2 2 3 3 3 2
4 5 5 5 4 3 4 3 2 1 1 1 1 2 2 2 2 2 2 2 3 4 4 2 2 3 2 3 3 3 3 3 3 3 3 3 3 3
3 3 3 3 3 3 3 3 2 3 2 1 2 2 3 3 2 2 1 1 1 2 4 4 2 1 4 3 2 3 3 3 3 2 2 3 4 4
3 2 2 2 1 1 2 2 2 2 2 2 2 2 2 2 3 2 1 1 1 2 3 3 2 3 4 3 5 4 3 3 3 2 1 2 4 4
2 1 1 1 0 0 1 1 1 1 1 2 2 2 2 2 2 2 2 2 2 3 3 2 1 1 1 4 6 4 4 3 2 3 2 3 4 5
1 0 0 0 0 0 0 1 1 2 2 2 2 2 2 2 2 3 3 2 3 3 3 3 2 2 4 4 4 5 5 5 3 3 3 2 4 5
1 0 1 0 0 0 0 1 1 1 2 2 2 3 3 2 3 3 3 5 3 2 3 4 5 5 2 0 2 5 5 5 8 5 3 1 3 4
1 1 1 0 1 1 1 1 1 2 2 2 2 2 2 2 3 4 4 3 3 3 3 4 4 3 1 0 2 4 5 6 5 6 8 8 4 3
2 1 1 1 1 1 1 2 2 1 1 1 1 2 3 3 3 3 4 3 3 3 3 4 4 3 2 1 2 3 4 4 4 4 4 7 12 14
Wind_Direction
75 74 75 69 74 88 116 139 140 138 144 184 165 200 187 193 214 203 209 221 203 183 176 151 117 77 47 34 26 21 15 9 5 1 357 352 348 344
70 71 65 63 68 76 98 100 115 131 136 175 190 192 189 189 201 205 226 232 218 203 202 207 209 211 229 22 20 16 14 12 8 3 359 354 349 346
60 68 64 64 67 62 75 85 93 109 120 115 67 112 159 195 221 258 238 229 222 213 210 214 218 225 234 236 318 0 5 6 3 0 357 354 350 346
64 65 61 68 62 60 70 77 85 94 119 121 85 51 223 212 176 314 302 221 219 222 214 217 220 226 232 230 230 281 339 347 348 350 350 349 346 344
68 70 66 72 68 65 69 72 77 83 91 111 99 39 22 24 46 13 12 353 257 214 211 224 230 230 227 229 231 246 279 307 323 334 339 340 342 341
68 69 68 75 81 78 76 72 79 79 82 91 83 55 40 19 56 38 5 347 330 350 235 232 235 233 229 227 233 242 255 273 291 306 319 326 333 334
63 63 68 75 76 78 88 86 88 87 85 86 78 58 33 32 29 354 16 336 329 347 343 304 282 266 252 240 240 244 248 259 275 291 305 313 318 320
70 62 61 54 56 61 74 91 107 115 115 104 97 101 94 209 342 27 44 33 327 313 50 301 277 261 258 242 244 246 249 258 270 283 295 304 310 312
76 70 65 51 48 52 53 57 63 92 130 139 143 179 193 208 170 35 56 191 241 266 87 305 312 280 264 254 246 246 250 257 266 278 288 297 307 312
79 86 80 51 43 62 64 55 45 40 75 142 177 206 211 203 184 187 210 270 301 301 133 233 300 286 288 283 268 257 257 261 265 273 282 291 303 311
64 70 77 63 51 70 72 61 39 10 18 30 229 231 225 208 182 121 70 67 4 310 316 155 282 304 305 292 281 273 266 264 267 270 274 283 294 309
52 45 55 66 60 69 77 71 40 345 345 353 2 357 336 280 194 174 161 144 184 284 275 166 270 353 325 298 291 293 286 276 274 272 272 276 281 288
62 25 7 35 48 55 71 79 326 315 335 358 6 7 4 352 305 220 192 172 181 239 241 173 210 199 208 292 304 290 274 275 288 283 279 277 275 253
71 344 322 354 12 21 32 6 15 36 41 38 34 13 356 328 302 288 244 219 214 227 240 181 196 195 190 275 289 300 299 273 260 272 279 287 284 266
359 323 337 354 4 3 358 7 30 49 49 44 19 321 289 285 303 324 334 323 297 266 249 201 193 192 176 209 255 276 295 295 268 265 277 271 264 257
3 345 356 13 29 4 0 16 32 58 90 55 309 306 322 344 352 351 348 349 353 328 321 296 212 189 205 225 222 259 257 274 292 281 273 281 273 242
355 13 22 21 19 14 11 8 20 34 38 16 7 0 356 354 339 341 355 11 1 311 313 323 328 241 215 204 237 258 264 275 268 278 295 298 283 257
56 39 17 22 33 31 33 17 11 9 1 9 15 12 360 351 342 343 352 352 312 294 291 298 335 360 354 305 220 229 259 261 274 279 242 272 290 284
68 38 20 17 24 31 50 41 345 329 344 17 19 5 357 355 356 346 343 338 321 305 290 283 286 118 348 303 293 224 211 260 279 289 259 225 255 274
65 129 234 262 104 56 9 359 348 355 5 12 11 4 2 357 351 341 333 321 309 310 314 309 269 213 206 227 262 283 232 218 240 263 273 270 267 279
341 283 238 220 213 79 40 40 36 20 16 19 10 3 357 356 344 333 326 326 327 314 307 291 274 273 225 175 310 300 290 247 216 216 228 269 306 317
234 222 231 173 143 112 104 87 63 48 38 34 13 2 354 357 342 330 326 322 310 294 284 284 303 337 52 318 281 283 296 309 295 253 228 203 198 229
200 170 148 118 111 111 108 95 94 76 54 26 2 349 349 345 335 328 321 316 313 312 311 316 329 344 330 282 279 285 296 305 322 332 307 263 236 245